Home > Time Zones > World Clock > Weather > Peru > Lima > Past weeks

Flag for Peru Weather past 2 weeks in Lima, Lima, Peru

Now
70 °F

Clear.


Feels Like: 70 °F
Forecast: 66 / 76 °F
Wind: 13 mph from South

Location: Lima-Callao / Aerop. Internacional Jorgechavez

Current Time: Apr 26, 2015 at 8:03:05 PM

Latest Report: Apr 26, 2015 at 7:00 PM


Visibility: 10 mi

Pressure: 29.86 "Hg

Humidity: 83%

Dew point: 64 °F

Location of LimaLocation

Historic Weather in Lima — Graph

°F

Lima temperature yesterday

Maximum temperature yesterday: 73 °F (at 4:00 PM)
Minimum temperature yesterday: 64 °F (at 5:00 AM)
Average temperature yesterday: 69 °F

Past Weeks' High & Low Weather Summary

 TemperatureHumidityPressure
High81 °F (Apr 13, 1:00 PM)94% (Apr 11, 9:00 PM)29.98 "Hg (Apr 11, 9:00 PM)
Low64 °F (Apr 25, 5:00 AM)62% (Apr 15, 1:00 PM)29.83 "Hg (Apr 17, 4:00 PM)
Average71 °F85%29.89 "Hg
* Reported Apr 11 7:00 PM — Apr 26 7:00 PM, Lima, Weather by CustomWeather, © 2015

Note: Actual official high and low records may vary slightly from our data, if they occured in-between our weather recording intervals... More about our weather records

Advertising

Lima weather history for previous 24 hours

 ConditionsComfort  
Time TempWeatherWind HumidityBarometerVisibility
7:00 PM
Sun, Apr 26
70 °FClear.13 mph83%29.86 "Hg10 mi
6:00 PM70 °FClear.12 mph83%29.83 "Hg10 mi
5:00 PM72 °FSunny.10 mph78%29.83 "Hg10 mi
4:00 PM73 °FPassing clouds.10 mph74%29.83 "HgN/A
3:00 PM75 °FScattered clouds.8 mph69%29.86 "HgN/A
2:00 PM73 °FScattered clouds.8 mph74%29.86 "Hg5 mi
1:00 PM75 °FScattered clouds.7 mph69%29.89 "Hg3 mi
12:00 PM73 °FPartly sunny.7 mph74%29.89 "Hg4 mi
11:00 AM72 °FScattered clouds.7 mph78%29.92 "HgN/A
10:00 AM72 °FScattered clouds.6 mph78%29.92 "Hg5 mi
9:00 AM72 °FPartly sunny.6 mph78%29.92 "Hg5 mi
8:00 AM70 °FBroken clouds.5 mph83%29.92 "HgN/A
7:00 AM68 °FOvercast.3 mph88%29.89 "HgN/A
6:00 AM68 °FOvercast.3 mph88%29.86 "HgN/A
5:00 AM68 °FOvercast.5 mph88%29.86 "HgN/A
4:00 AM68 °FOvercast.7 mph88%29.86 "HgN/A
3:00 AM68 °FOvercast.8 mph88%29.86 "HgN/A
2:00 AM68 °FLow clouds.10 mph88%29.86 "HgN/A
1:00 AM68 °FPassing clouds.8 mph88%29.89 "HgN/A
12:00 AM68 °FClear.10 mph88%29.89 "Hg10 mi
11:00 PM
Sat, Apr 25
68 °FClear.8 mph88%29.89 "Hg10 mi
10:00 PM70 °FClear.12 mph83%29.89 "Hg10 mi
9:00 PM70 °FClear.10 mph83%29.89 "Hg10 mi
8:00 PM70 °FPassing clouds.14 mph83%29.89 "HgN/A
Weather by CustomWeather, © 2015

See weather overviewHow to use our weather pages